| time (UTC) | temp F | wind direction | speed MPH | gust MPH | rain 1hr in | rain 24hr in | rain mn in | humidity % | barometer mb |
| 20260506224154 | 55 | 266 | 3.0 | 5.0 | 0.00 | 0.00 | 0.00 | 46 | 1010.6 |
| 20260506223650 | 55 | 1 | 1.0 | 5.0 | 0.00 | 0.00 | 0.00 | 48 | 1010.4 |
| 20260506223146 | 55 | 104 | 2.0 | 3.0 | 0.00 | 0.00 | 0.00 | 48 | 1010.4 |
| 20260506222643 | 55 | 78 | 0.0 | 4.0 | 0.00 | 0.00 | 0.00 | 48 | 1010.5 |
| 20260506222139 | 55 | 235 | 3.0 | 5.0 | 0.00 | 0.00 | 0.00 | 49 | 1010.5 |
| 20260506221637 | 55 | 30 | 2.0 | 4.0 | 0.00 | 0.00 | 0.00 | 49 | 1010.6 |
| 20260506221135 | 55 | 345 | 5.0 | 6.0 | 0.00 | 0.00 | 0.00 | 48 | 1010.2 |
| 20260506220631 | 55 | 0 | 2.0 | 5.0 | 0.00 | 0.00 | 0.00 | 48 | 1010.1 |
| 20260506220126 | 55 | 25 | 1.0 | 4.0 | 0.00 | 0.00 | 0.00 | 48 | 1010.2 |
| 20260506215623 | 55 | 66 | 2.0 | 4.0 | 0.00 | 0.00 | 0.00 | 46 | 1009.9 |
| 20260506215119 | 55 | 36 | 1.0 | 4.0 | 0.00 | 0.00 | 0.00 | 47 | 1010.0 |
| 20260506214616 | 55 | 27 | 4.0 | 5.0 | 0.00 | 0.00 | 0.00 | 47 | 1009.8 |
| 20260506214113 | 55 | 298 | 2.0 | 8.0 | 0.00 | 0.00 | 0.00 | 47 | 1009.8 |
| 20260506213612 | 55 | 39 | 0.0 | 6.0 | 0.00 | 0.00 | 0.00 | 48 | 1009.7 |
| 20260506213108 | 55 | 139 | 3.0 | 6.0 | 0.00 | 0.00 | 0.00 | 47 | 1009.7 |
| 20260506212605 | 55 | 1 | 4.0 | 9.0 | 0.00 | 0.00 | 0.00 | 46 | 1009.6 |
| 20260506212100 | 56 | 200 | 1.0 | 3.0 | 0.00 | 0.00 | 0.00 | 47 | 1009.6 |
| 20260506211556 | 55 | 77 | 2.0 | 6.0 | 0.00 | 0.00 | 0.00 | 46 | 1009.5 |
| 20260506211054 | 55 | 70 | 2.0 | 9.0 | 0.00 | 0.00 | 0.00 | 48 | 1009.6 |
| 20260506210550 | 55 | 61 | 5.0 | 5.0 | 0.00 | 0.00 | 0.00 | 48 | 1009.6 |
| 20260506210046 | 56 | 344 | 7.0 | 7.0 | 0.00 | 0.00 | 0.00 | 46 | 1009.9 |
| 20260506205543 | 55 | 186 | 2.0 | 6.0 | 0.00 | 0.00 | 0.00 | 46 | 1009.6 |
| 20260506205038 | 55 | 32 | 0.0 | 5.0 | 0.00 | 0.00 | 0.00 | 48 | 1009.6 |
| 20260506204537 | 55 | 148 | 2.0 | 4.0 | 0.00 | 0.00 | 0.00 | 48 | 1009.5 |
| 20260506204033 | 55 | 110 | 1.0 | 5.0 | 0.00 | 0.00 | 0.00 | 46 | 1009.7 |
| 20260506203532 | 55 | 0 | 2.0 | 6.0 | 0.00 | 0.00 | 0.00 | 45 | 1009.4 |
| 20260506203028 | 56 | 335 | 4.0 | 6.0 | 0.00 | 0.00 | 0.00 | 44 | 1009.5 |
| 20260506202525 | 56 | 339 | 6.0 | 7.0 | 0.00 | 0.00 | 0.00 | 46 | 1009.5 |
| 20260506202022 | 56 | 251 | 4.0 | 6.0 | 0.00 | 0.00 | 0.00 | 47 | 1009.5 |
| 20260506201520 | 56 | 47 | 4.0 | 5.0 | 0.00 | 0.00 | 0.00 | 48 | 1009.4 |
| 20260506201016 | 56 | 344 | 3.0 | 10.0 | 0.00 | 0.00 | 0.00 | 45 | 1009.4 |
| 20260506200512 | 56 | 345 | 5.0 | 5.0 | 0.00 | 0.00 | 0.00 | 47 | 1009.5 |
| 20260506200009 | 56 | 32 | 3.0 | 11.0 | 0.00 | 0.00 | 0.00 | 47 | 1009.4 |
| 20260506195506 | 56 | 82 | 2.0 | 10.0 | 0.00 | 0.00 | 0.00 | 51 | 1009.3 |
| 20260506195002 | 56 | 85 | 1.0 | 4.0 | 0.00 | 0.00 | 0.00 | 51 | 1009.4 |
| 20260506194500 | 55 | 1 | 3.0 | 6.0 | 0.00 | 0.00 | 0.00 | 49 | 1009.4 |
| 20260506193956 | 56 | 61 | 2.0 | 7.0 | 0.00 | 0.00 | 0.00 | 51 | 1009.4 |
| 20260506193454 | 56 | 327 | 3.0 | 8.0 | 0.00 | 0.00 | 0.00 | 49 | 1009.6 |
| 20260506192950 | 56 | 323 | 4.0 | 5.0 | 0.00 | 0.00 | 0.00 | 50 | 1009.5 |
| 20260506192447 | 56 | 84 | 2.0 | 4.0 | 0.00 | 0.00 | 0.00 | 49 | 1009.4 |
| 20260506191943 | 56 | 104 | 3.0 | 6.0 | 0.00 | 0.00 | 0.00 | 48 | 1009.3 |
| 20260506191441 | 57 | 347 | 0.0 | 4.0 | 0.00 | 0.00 | 0.00 | 48 | 1009.3 |
| 20260506190937 | 58 | 37 | 4.0 | 7.0 | 0.00 | 0.00 | 0.00 | 47 | 1009.2 |
| 20260506190434 | 58 | 48 | 5.0 | 6.0 | 0.00 | 0.00 | 0.00 | 50 | 1009.0 |
| 20260506185931 | 58 | 11 | 2.0 | 6.0 | 0.00 | 0.00 | 0.00 | 48 | 1009.2 |
| 20260506185428 | 57 | 154 | 0.0 | 5.0 | 0.00 | 0.00 | 0.00 | 49 | 1009.1 |
| 20260506184925 | 58 | 15 | 2.0 | 10.0 | 0.00 | 0.00 | 0.00 | 48 | 1009.1 |
| 20260506184421 | 58 | 40 | 2.0 | 12.0 | 0.00 | 0.00 | 0.00 | 47 | 1009.3 |
| 20260506183919 | 59 | 91 | 3.0 | 9.0 | 0.00 | 0.00 | 0.00 | 46 | 1009.2 |
| 20260506183414 | 57 | 343 | 3.0 | 6.0 | 0.00 | 0.00 | 0.00 | 49 | 1009.2 |
| 20260506182912 | 57 | 86 | 2.0 | 6.0 | 0.00 | 0.00 | 0.00 | 51 | 1009.3 |
| 20260506182409 | 58 | 69 | 3.0 | 9.0 | 0.00 | 0.00 | 0.00 | 50 | 1009.4 |
| 20260506181906 | 58 | 105 | 1.0 | 5.0 | 0.00 | 0.00 | 0.00 | 47 | 1009.3 |
| 20260506181404 | 58 | 71 | 4.0 | 8.0 | 0.00 | 0.00 | 0.00 | 51 | 1009.4 |
| 20260506180901 | 58 | 237 | 5.0 | 7.0 | 0.00 | 0.00 | 0.00 | 47 | 1009.2 |
| 20260506180356 | 58 | 343 | 4.0 | 8.0 | 0.00 | 0.00 | 0.00 | 46 | 1009.3 |
| 20260506175854 | 58 | 29 | 1.0 | 6.0 | 0.00 | 0.00 | 0.00 | 47 | 1009.3 |
| 20260506175350 | 58 | 340 | 4.0 | 12.0 | 0.00 | 0.00 | 0.00 | 48 | 1009.3 |
| 20260506174847 | 58 | 235 | 3.0 | 9.0 | 0.00 | 0.00 | 0.00 | 47 | 1009.3 |
| 20260506174345 | 58 | 75 | 2.0 | 5.0 | 0.00 | 0.00 | 0.00 | 49 | 1009.3 |
| 20260506173842 | 58 | 213 | 4.0 | 9.0 | 0.00 | 0.00 | 0.00 | 49 | 1009.4 |
| 20260506173339 | 57 | 77 | 2.0 | 6.0 | 0.00 | 0.00 | 0.00 | 52 | 1009.4 |
| 20260506172836 | 58 | 344 | 8.0 | 9.0 | 0.00 | 0.00 | 0.00 | 47 | 1009.4 |
| 20260506172332 | 58 | 321 | 4.0 | 4.0 | 0.00 | 0.00 | 0.00 | 51 | 1009.5 |
| 20260506171830 | 58 | 350 | 2.0 | 6.0 | 0.00 | 0.00 | 0.00 | 50 | 1009.3 |
| 20260506171327 | 57 | 50 | 1.0 | 7.0 | 0.00 | 0.00 | 0.00 | 53 | 1009.0 |
| 20260506170825 | 57 | 345 | 6.0 | 9.0 | 0.00 | 0.00 | 0.00 | 49 | 1009.0 |
| 20260506170320 | 57 | 91 | 4.0 | 6.0 | 0.00 | 0.00 | 0.00 | 53 | 1009.3 |
| 20260506165820 | 57 | 311 | 2.0 | 7.0 | 0.00 | 0.00 | 0.00 | 51 | 1009.3 |
| 20260506165317 | 56 | 344 | 8.0 | 10.0 | 0.00 | 0.00 | 0.00 | 51 | 1009.5 |
| 20260506164813 | 56 | 251 | 1.0 | 6.0 | 0.00 | 0.00 | 0.00 | 57 | 1009.6 |
| 20260506164310 | 57 | 102 | 2.0 | 7.0 | 0.00 | 0.00 | 0.00 | 54 | 1009.4 |
| 20260506163807 | 56 | 30 | 2.0 | 6.0 | 0.00 | 0.00 | 0.00 | 54 | 1009.2 |
| 20260506163301 | 56 | 53 | 2.0 | 6.0 | 0.00 | 0.00 | 0.00 | 53 | 1009.3 |
| 20260506162757 | 57 | 167 | 2.0 | 4.0 | 0.00 | 0.00 | 0.00 | 60 | 1009.6 |
| 20260506162256 | 55 | 16 | 3.0 | 9.0 | 0.00 | 0.00 | 0.00 | 58 | 1009.5 |
| 20260506161753 | 55 | 48 | 3.0 | 9.0 | 0.00 | 0.00 | 0.00 | 59 | 1009.4 |
| 20260506161250 | 55 | 82 | 3.0 | 4.0 | 0.00 | 0.00 | 0.00 | 58 | 1009.5 |
| 20260506160748 | 55 | 141 | 2.0 | 6.0 | 0.00 | 0.00 | 0.00 | 56 | 1009.3 |
| 20260506160244 | 54 | 58 | 4.0 | 5.0 | 0.00 | 0.00 | 0.00 | 61 | 1009.2 |
| 20260506155743 | 55 | 347 | 3.0 | 6.0 | 0.00 | 0.00 | 0.00 | 60 | 1009.0 |
| 20260506155239 | 54 | 355 | 3.0 | 4.0 | 0.00 | 0.00 | 0.00 | 60 | 1009.1 |
| 20260506153346 | 53 | 233 | 0.0 | 6.0 | 0.00 | 0.00 | 0.00 | 62 | 1008.8 |
| 20260506152843 | 53 | 35 | 4.0 | 7.0 | 0.00 | 0.00 | 0.00 | 61 | 1008.9 |
| 20260506152340 | 53 | 236 | 4.0 | 5.0 | 0.00 | 0.00 | 0.00 | 63 | 1008.9 |
| 20260506151839 | 52 | 351 | 2.0 | 6.0 | 0.00 | 0.00 | 0.00 | 62 | 1008.8 |
| 20260506151335 | 53 | 315 | 9.0 | 11.0 | 0.00 | 0.00 | 0.00 | 61 | 1008.7 |
| 20260506150832 | 53 | 231 | 3.0 | 6.0 | 0.00 | 0.00 | 0.00 | 62 | 1008.4 |
| 20260506150329 | 52 | 309 | 2.0 | 6.0 | 0.00 | 0.00 | 0.00 | 61 | 1008.4 |
| 20260506145826 | 53 | 4 | 5.0 | 7.0 | 0.00 | 0.00 | 0.00 | 63 | 1008.6 |
| 20260506145322 | 52 | 308 | 2.0 | 3.0 | 0.00 | 0.00 | 0.00 | 62 | 1008.6 |
| 20260506144820 | 51 | 237 | 0.0 | 11.0 | 0.00 | 0.00 | 0.00 | 65 | 1008.4 |
| 20260506144316 | 51 | 74 | 2.0 | 4.0 | 0.00 | 0.00 | 0.00 | 64 | 1008.7 |
| 20260506143815 | 51 | 334 | 8.0 | 9.0 | 0.00 | 0.00 | 0.00 | 64 | 1008.8 |
| 20260506143311 | 50 | 356 | 2.0 | 5.0 | 0.00 | 0.00 | 0.00 | 64 | 1008.3 |
| 20260506142810 | 50 | 331 | 5.0 | 7.0 | 0.00 | 0.00 | 0.00 | 64 | 1008.6 |
| 20260506142307 | 51 | 329 | 2.0 | 4.0 | 0.00 | 0.00 | 0.00 | 68 | 1008.2 |
| 20260506141806 | 50 | 333 | 2.0 | 6.0 | 0.00 | 0.00 | 0.00 | 68 | 1008.0 |
| 20260506141303 | 50 | 306 | 3.0 | 11.0 | 0.00 | 0.00 | 0.00 | 67 | 1008.1 |
| 20260506140801 | 50 | 322 | 4.0 | 10.0 | 0.00 | 0.00 | 0.00 | 70 | 1008.1 |
| 20260506140257 | 49 | 343 | 2.0 | 9.0 | 0.00 | 0.00 | 0.00 | 72 | 1007.9 |
| 20260506135755 | 49 | 37 | 3.0 | 8.0 | 0.00 | 0.00 | 0.00 | 72 | 1007.6 |
| 20260506135250 | 49 | 13 | 2.0 | 7.0 | 0.00 | 0.00 | 0.00 | 74 | 1007.5 |
| 20260506134748 | 49 | 354 | 2.0 | 6.0 | 0.00 | 0.00 | 0.00 | 77 | 1007.7 |
| 20260506134244 | 49 | 54 | 4.0 | 6.0 | 0.00 | 0.00 | 0.00 | 76 | 1007.7 |
| 20260506133741 | 48 | 211 | 2.0 | 4.0 | 0.00 | 0.00 | 0.00 | 80 | 1007.7 |
| 20260506133238 | 48 | 344 | 2.0 | 6.0 | 0.00 | 0.00 | 0.00 | 80 | 1007.5 |
| 20260506132735 | 47 | 253 | 1.0 | 6.0 | 0.00 | 0.00 | 0.00 | 82 | 1007.7 |
| 20260506132232 | 47 | 320 | 7.0 | 8.0 | 0.00 | 0.00 | 0.00 | 82 | 1007.7 |
| 20260506131730 | 47 | 89 | 0.0 | 3.0 | 0.00 | 0.00 | 0.00 | 85 | 1007.6 |
| 20260506131225 | 46 | 44 | 6.0 | 6.0 | 0.00 | 0.00 | 0.00 | 85 | 1007.8 |
| 20260506130723 | 46 | 44 | 2.0 | 5.0 | 0.00 | 0.00 | 0.00 | 85 | 1007.5 |
| 20260506130219 | 46 | 319 | 3.0 | 8.0 | 0.00 | 0.00 | 0.00 | 84 | 1007.6 |
| 20260506125718 | 46 | 348 | 5.0 | 7.0 | 0.00 | 0.00 | 0.00 | 85 | 1007.7 |
| 20260506125215 | 46 | 1 | 2.0 | 3.0 | 0.00 | 0.00 | 0.00 | 86 | 1007.6 |
| 20260506124713 | 46 | 344 | 6.0 | 6.0 | 0.00 | 0.00 | 0.00 | 86 | 1007.5 |
| 20260506124211 | 46 | 317 | 2.0 | 6.0 | 0.00 | 0.00 | 0.00 | 86 | 1007.3 |
| 20260506123708 | 46 | 6 | 2.0 | 5.0 | 0.00 | 0.00 | 0.00 | 87 | 1007.1 |
| 20260506123207 | 46 | 344 | 1.0 | 3.0 | 0.00 | 0.00 | 0.00 | 87 | 1007.0 |
| 20260506122703 | 46 | 345 | 3.0 | 5.0 | 0.00 | 0.00 | 0.00 | 87 | 1006.9 |
| 20260506122201 | 45 | 337 | 2.0 | 2.0 | 0.00 | 0.00 | 0.00 | 87 | 1006.9 |
| 20260506121658 | 45 | 77 | 1.0 | 6.0 | 0.00 | 0.00 | 0.00 | 87 | 1006.7 |
| 20260506121154 | 45 | 36 | 2.0 | 6.0 | 0.00 | 0.00 | 0.00 | 88 | 1006.7 |
| 20260506120652 | 45 | 43 | 2.0 | 4.0 | 0.00 | 0.00 | 0.00 | 90 | 1006.7 |
| 20260506120149 | 45 | 353 | 0.0 | 3.0 | 0.00 | 0.00 | 0.00 | 92 | 1006.8 |
| 20260506115648 | 45 | 134 | 0.0 | 2.0 | 0.00 | 0.00 | 0.00 | 93 | 1006.6 |
| 20260506115146 | 45 | 120 | 2.0 | 2.0 | 0.00 | 0.00 | 0.00 | 94 | 1006.8 |
| 20260506114643 | 46 | 358 | 0.0 | 2.0 | 0.00 | 0.00 | 0.00 | 95 | 1006.8 |
| 20260506114141 | 46 | 299 | 0.0 | 2.0 | 0.00 | 0.00 | 0.00 | 95 | 1006.6 |
| 20260506113639 | 46 | 57 | 1.0 | 5.0 | 0.00 | 0.00 | 0.00 | 95 | 1006.1 |
| 20260506113136 | 46 | 0 | 2.0 | 6.0 | 0.00 | 0.00 | 0.00 | 96 | 1006.3 |
| 20260506112632 | 46 | 44 | 1.0 | 5.0 | 0.00 | 0.00 | 0.00 | 96 | 1006.0 |
| 20260506112129 | 46 | 37 | 2.0 | 6.0 | 0.00 | 0.00 | 0.00 | 96 | 1005.8 |
| 20260506111627 | 46 | 316 | 2.0 | 6.0 | 0.00 | 0.00 | 0.00 | 96 | 1005.7 |
| 20260506111125 | 46 | 17 | 2.0 | 9.0 | 0.00 | 0.00 | 0.00 | 96 | 1005.5 |
| 20260506110622 | 46 | 75 | 3.0 | 4.0 | 0.00 | 0.00 | 0.00 | 96 | 1005.5 |
| 20260506110119 | 46 | 31 | 2.0 | 6.0 | 0.00 | 0.00 | 0.00 | 96 | 1005.4 |
| 20260506105616 | 46 | 69 | 1.0 | 4.0 | 0.00 | 1.07 | 1.07 | 96 | 1005.9 |
| 20260506105113 | 46 | 356 | 0.0 | 3.0 | 0.00 | 1.07 | 1.07 | 96 | 1006.0 |
| 20260506104611 | 46 | 47 | 2.0 | 4.0 | 0.00 | 1.07 | 1.07 | 96 | 1005.5 |
| 20260506104108 | 46 | 64 | 2.0 | 2.0 | 0.00 | 1.07 | 1.07 | 96 | 1005.6 |
| 20260506103605 | 46 | 123 | 2.0 | 4.0 | 0.00 | 1.07 | 1.07 | 97 | 1005.5 |
| 20260506103102 | 46 | 47 | 2.0 | 4.0 | 0.00 | 1.07 | 1.07 | 97 | 1005.4 |
| 20260506102600 | 46 | 311 | 3.0 | 3.0 | 0.00 | 1.07 | 1.07 | 97 | 1005.6 |
| 20260506102057 | 46 | 32 | 2.0 | 6.0 | 0.00 | 1.07 | 1.07 | 97 | 1005.7 |
| 20260506101554 | 46 | 330 | 4.0 | 4.0 | 0.00 | 1.07 | 1.07 | 97 | 1005.6 |
| 20260506101051 | 46 | 269 | 0.0 | 4.0 | 0.00 | 1.07 | 1.07 | 97 | 1005.1 |
| 20260506100549 | 46 | 96 | 1.0 | 3.0 | 0.00 | 1.07 | 1.07 | 97 | 1005.0 |
| 20260506100047 | 46 | 337 | 0.0 | 4.0 | 0.00 | 1.07 | 1.07 | 97 | 1004.5 |
| 20260506095545 | 46 | 348 | 1.0 | 6.0 | 0.00 | 1.07 | 1.07 | 97 | 1004.9 |
| 20260506095041 | 46 | 89 | 0.0 | 2.0 | 0.00 | 1.07 | 1.07 | 97 | 1004.8 |
| 20260506094539 | 46 | 185 | 1.0 | 2.0 | 0.00 | 1.07 | 1.07 | 97 | 1004.5 |
| 20260506094037 | 46 | 214 | 2.0 | 3.0 | 0.00 | 1.07 | 1.07 | 97 | 1004.5 |
| 20260506093535 | 45 | 89 | 0.0 | 4.0 | 0.00 | 1.07 | 1.07 | 97 | 1003.9 |
| 20260506093032 | 45 | 6 | 0.0 | 4.0 | 0.00 | 1.07 | 1.07 | 97 | 1003.9 |
| 20260506092530 | 45 | 118 | 2.0 | 3.0 | 0.00 | 1.07 | 1.07 | 97 | 1004.3 |
| 20260506092026 | 45 | 348 | 0.0 | 4.0 | 0.00 | 1.07 | 1.07 | 97 | 1004.8 |
| 20260506091525 | 45 | 116 | 2.0 | 6.0 | 0.00 | 1.07 | 1.07 | 97 | 1004.5 |
| 20260506091022 | 45 | 299 | 0.0 | 6.0 | 0.02 | 1.07 | 1.07 | 97 | 1004.4 |
| 20260506090520 | 45 | 30 | 6.0 | 9.0 | 0.05 | 1.07 | 1.07 | 97 | 1004.2 |
| 20260506090016 | 45 | 21 | 5.0 | 7.0 | 0.12 | 1.07 | 1.07 | 96 | 1004.3 |
| 20260506085513 | 45 | 2 | 2.0 | 6.0 | 0.12 | 1.06 | 1.06 | 96 | 1004.3 |
| 20260506085009 | 46 | 312 | 2.0 | 7.0 | 0.09 | 1.05 | 1.05 | 96 | 1004.4 |
| 20260506084506 | 46 | 131 | 2.0 | 6.0 | 0.02 | 1.03 | 1.03 | 96 | 1004.8 |
| 20260506084002 | 46 | 326 | 2.0 | 4.0 | 0.07 | 1.03 | 1.03 | 96 | 1004.8 |
| 20260506083459 | 46 | 196 | 0.0 | 4.0 | 0.07 | 1.03 | 1.03 | 96 | 1004.8 |
| 20260506082956 | 46 | 254 | 2.0 | 6.0 | 0.07 | 1.02 | 1.02 | 97 | 1004.8 |
| 20260506082454 | 46 | 52 | 5.0 | 6.0 | 0.07 | 1.02 | 1.02 | 97 | 1004.6 |
| 20260506081949 | 46 | 64 | 0.0 | 4.0 | 0.07 | 1.01 | 1.01 | 96 | 1004.6 |
| 20260506081448 | 46 | 334 | 2.0 | 6.0 | 0.05 | 1.00 | 1.00 | 96 | 1004.5 |
| 20260506080945 | 46 | 326 | 3.0 | 9.0 | 0.05 | 1.00 | 1.00 | 96 | 1004.6 |
| 20260506080442 | 46 | 32 | 0.0 | 6.0 | 0.02 | 1.00 | 1.00 | 96 | 1004.6 |
| 20260506073426 | 46 | 322 | 5.0 | 7.0 | 0.05 | 0.99 | 0.99 | 97 | 1004.0 |
| 20260506072923 | 46 | 55 | 1.0 | 5.0 | 0.05 | 0.99 | 0.99 | 97 | 1003.8 |
| 20260506072420 | 46 | 16 | 2.0 | 7.0 | 0.09 | 0.98 | 0.98 | 97 | 1004.1 |
| 20260506071918 | 46 | 81 | 2.0 | 5.0 | 0.07 | 0.98 | 0.98 | 97 | 1004.3 |
| 20260506071416 | 46 | 319 | 3.0 | 9.0 | 0.07 | 0.97 | 0.97 | 97 | 1004.1 |
| 20260506070912 | 46 | 32 | 9.0 | 9.0 | 0.07 | 0.96 | 0.96 | 97 | 1004.1 |
| 20260506070409 | 46 | 345 | 3.0 | 7.0 | 0.12 | 0.96 | 0.96 | 97 | 1004.1 |
| 20260506062346 | 47 | 330 | 6.0 | 6.0 | 0.07 | 0.88 | 0.88 | 96 | 1004.1 |
| 20260506061842 | 47 | 311 | 0.0 | 6.0 | 0.09 | 0.87 | 0.87 | 96 | 1004.2 |
| 20260506061339 | 47 | 310 | 2.0 | 8.0 | 0.09 | 0.87 | 0.87 | 96 | 1004.1 |
| 20260506060837 | 47 | 333 | 3.0 | 9.0 | 0.12 | 0.86 | 0.86 | 96 | 1004.3 |
| 20260506060335 | 47 | 23 | 3.0 | 11.0 | 0.09 | 0.85 | 0.85 | 96 | 1004.0 |
| 20260506051307 | 48 | 109 | 1.0 | 4.0 | 0.02 | 0.81 | 0.81 | 96 | 1004.5 |
| 20260506050805 | 48 | 91 | 1.0 | 6.0 | 0.05 | 0.81 | 0.81 | 96 | 1004.4 |
| 20260506050302 | 48 | 315 | 3.0 | 7.0 | 0.05 | 0.81 | 0.81 | 96 | 1004.9 |
| 20260506044752 | 48 | 333 | 0.0 | 4.0 | 0.00 | 0.80 | 0.80 | 96 | 1004.8 |
| 20260506044250 | 48 | 118 | 0.0 | 2.0 | 0.00 | 0.80 | 0.80 | 96 | 1004.4 |
| 20260506043747 | 48 | 25 | 2.0 | 4.0 | 0.00 | 0.80 | 0.80 | 96 | 1004.4 |
| 20260506043244 | 48 | 80 | 2.0 | 4.0 | 0.00 | 0.80 | 0.80 | 96 | 1004.4 |
| 20260506042743 | 48 | 356 | 1.0 | 4.0 | 0.00 | 0.80 | 0.80 | 96 | 1004.5 |
| 20260506042241 | 48 | 30 | 0.0 | 5.0 | 0.00 | 0.80 | 0.80 | 96 | 1004.4 |
| 20260506041739 | 48 | 43 | 4.0 | 9.0 | 0.00 | 0.80 | 0.80 | 96 | 1004.4 |
| 20260506041236 | 48 | 38 | 2.0 | 5.0 | 0.00 | 0.80 | 0.80 | 96 | 1004.6 |
| 20260506040733 | 49 | 26 | 2.0 | 4.0 | 0.00 | 0.80 | 0.80 | 96 | 1004.9 |
| 20260506040230 | 49 | 53 | 1.0 | 4.0 | 0.00 | 0.80 | 0.80 | 96 | 1004.6 |
| 20260506035727 | 49 | 138 | 3.0 | 4.0 | 0.00 | 0.80 | 0.80 | 96 | 1004.4 |
| 20260506035224 | 49 | 54 | 2.0 | 3.0 | 0.02 | 0.80 | 0.80 | 96 | 1004.6 |
| 20260506034720 | 49 | 140 | 1.0 | 4.0 | 0.05 | 0.80 | 0.80 | 96 | 1005.0 |
| 20260506034218 | 49 | 319 | 2.0 | 3.0 | 0.07 | 0.80 | 0.80 | 96 | 1005.0 |
| 20260506033715 | 49 | 46 | 3.0 | 6.0 | 0.09 | 0.80 | 0.80 | 96 | 1005.0 |
| 20260506033212 | 49 | 60 | 1.0 | 5.0 | 0.05 | 0.78 | 0.78 | 96 | 1005.0 |
| 20260506032709 | 49 | 356 | 1.0 | 3.0 | 0.05 | 0.78 | 0.78 | 96 | 1005.3 |
| 20260506032206 | 49 | 107 | 3.0 | 4.0 | 0.07 | 0.78 | 0.78 | 96 | 1005.4 |
| 20260506031702 | 50 | 31 | 1.0 | 2.0 | 0.12 | 0.77 | 0.77 | 96 | 1005.4 |
| 20260506031200 | 50 | 35 | 5.0 | 7.0 | 0.17 | 0.76 | 0.76 | 96 | 1005.3 |
| 20260506030658 | 50 | 55 | 3.0 | 4.0 | 0.17 | 0.75 | 0.75 | 96 | 1005.6 |
| 20260506030155 | 50 | 52 | 2.0 | 6.0 | 0.19 | 0.74 | 0.74 | 95 | 1005.7 |
| 20260506025652 | 50 | 26 | 1.0 | 9.0 | 0.12 | 0.72 | 0.72 | 95 | 1005.6 |
| 20260506025148 | 50 | 42 | 2.0 | 6.0 | 0.05 | 0.70 | 0.70 | 95 | 1005.6 |
| 20260506024646 | 51 | 316 | 5.0 | 9.0 | 0.07 | 0.70 | 0.70 | 95 | 1005.6 |
| 20260506024142 | 51 | 62 | 0.0 | 5.0 | 0.09 | 0.69 | 0.69 | 95 | 1005.7 |
| 20260506023638 | 51 | 160 | 1.0 | 5.0 | 0.12 | 0.69 | 0.69 | 95 | 1005.4 |
| 20260506023135 | 51 | 351 | 3.0 | 10.0 | 0.12 | 0.68 | 0.68 | 95 | 1005.3 |
| 20260506022633 | 52 | 26 | 2.0 | 6.0 | 0.09 | 0.67 | 0.67 | 94 | 1005.3 |
| 20260506022130 | 52 | 28 | 2.0 | 4.0 | 0.09 | 0.66 | 0.66 | 94 | 1005.2 |
| 20260506021628 | 53 | 87 | 0.0 | 6.0 | 0.12 | 0.65 | 0.65 | 94 | 1005.4 |
| 20260506021125 | 54 | 346 | 3.0 | 6.0 | 0.14 | 0.64 | 0.64 | 93 | 1005.1 |
| 20260506020622 | 55 | 113 | 0.0 | 9.0 | 0.14 | 0.63 | 0.63 | 92 | 1005.1 |
| 20260506020119 | 59 | 340 | 4.0 | 5.0 | 0.12 | 0.61 | 0.61 | 94 | 1005.1 |
| 20260506015617 | 59 | 303 | 0.0 | 6.0 | 0.12 | 0.60 | 0.60 | 95 | 1004.9 |
| 20260506015114 | 59 | 237 | 0.0 | 4.0 | 0.14 | 0.59 | 0.59 | 95 | 1004.9 |
| 20260506014611 | 59 | 228 | 2.0 | 7.0 | 0.14 | 0.58 | 0.58 | 95 | 1005.0 |
| 20260506014106 | 59 | 206 | 4.0 | 5.0 | 0.12 | 0.57 | 0.57 | 95 | 1005.0 |
| 20260506013605 | 59 | 221 | 6.0 | 11.0 | 0.14 | 0.56 | 0.56 | 95 | 1005.0 |
| 20260506013101 | 59 | 50 | 0.0 | 4.0 | 0.14 | 0.55 | 0.55 | 95 | 1004.9 |
| 20260506012558 | 59 | 220 | 4.0 | 6.0 | 0.09 | 0.53 | 0.53 | 96 | 1004.6 |
| 20260506012054 | 59 | 251 | 2.0 | 5.0 | 0.07 | 0.52 | 0.52 | 96 | 1004.6 |
| 20260506011552 | 59 | 212 | 3.0 | 8.0 | 0.05 | 0.52 | 0.52 | 96 | 1004.4 |
| 20260506011048 | 59 | 217 | 6.0 | 8.0 | 0.02 | 0.51 | 0.51 | 96 | 1004.5 |
| 20260506010548 | 59 | 186 | 2.0 | 7.0 | 0.05 | 0.51 | 0.51 | 96 | 1004.3 |
| 20260506010044 | 59 | 219 | 3.0 | 4.0 | 0.05 | 0.50 | 0.50 | 96 | 1004.1 |
| 20260506005541 | 59 | 187 | 3.0 | 4.0 | 0.07 | 0.50 | 0.50 | 96 | 1004.3 |
| 20260506005037 | 59 | 159 | 5.0 | 6.0 | 0.07 | 0.50 | 0.50 | 96 | 1004.2 |
| 20260506004535 | 59 | 188 | 3.0 | 10.0 | 0.07 | 0.49 | 0.49 | 96 | 1004.3 |
| 20260506004031 | 59 | 189 | 2.0 | 5.0 | 0.07 | 0.48 | 0.48 | 96 | 1004.3 |
| 20260506003528 | 59 | 200 | 6.0 | 6.0 | 0.02 | 0.47 | 0.47 | 96 | 1004.4 |
| 20260506003024 | 59 | 160 | 2.0 | 4.0 | 0.05 | 0.47 | 0.47 | 96 | 1004.3 |
| 20260506002520 | 59 | 211 | 3.0 | 7.0 | 0.05 | 0.47 | 0.47 | 96 | 1004.4 |
| 20260506002015 | 59 | 209 | 3.0 | 4.0 | 0.05 | 0.47 | 0.47 | 96 | 1004.2 |
| 20260506001512 | 59 | 256 | 4.0 | 7.0 | 0.05 | 0.46 | 0.46 | 96 | 1004.3 |
| 20260506001009 | 59 | 220 | 3.0 | 7.0 | 0.05 | 0.46 | 0.46 | 96 | 1004.5 |
| 20260506000507 | 59 | 187 | 4.0 | 5.0 | 0.07 | 0.45 | 0.45 | 95 | 1004.6 |
| 20260506000004 | 59 | 226 | 3.0 | 5.0 | 0.09 | 0.45 | 0.45 | 95 | 1004.3 |
| 20260505235502 | 59 | 198 | 2.0 | 5.0 | 0.14 | 0.44 | 0.44 | 95 | 1004.2 |
| 20260505234958 | 59 | 193 | 2.0 | 4.0 | 0.09 | 0.43 | 0.43 | 95 | 1004.2 |
| 20260505234456 | 59 | 225 | 5.0 | 9.0 | 0.12 | 0.42 | 0.42 | 95 | 1004.1 |
| 20260505233952 | 59 | 193 | 4.0 | 6.0 | 0.17 | 0.42 | 0.42 | 95 | 1004.3 |
| 20260505233450 | 59 | 206 | 4.0 | 6.0 | 0.17 | 0.40 | 0.40 | 95 | 1004.2 |
| 20260505232947 | 59 | 222 | 5.0 | 7.0 | 0.26 | 0.39 | 0.39 | 95 | 1004.5 |
| 20260505232445 | 59 | 211 | 5.0 | 6.0 | 0.21 | 0.37 | 0.37 | 95 | 1004.5 |
| 20260505231942 | 59 | 188 | 5.0 | 5.0 | 0.09 | 0.34 | 0.34 | 95 | 1004.6 |
| 20260505231439 | 59 | 232 | 1.0 | 5.0 | 0.12 | 0.33 | 0.33 | 95 | 1004.8 |
| 20260505230937 | 59 | 213 | 3.0 | 6.0 | 0.17 | 0.32 | 0.32 | 95 | 1004.6 |
| 20260505230435 | 59 | 248 | 2.0 | 7.0 | 0.19 | 0.31 | 0.31 | 95 | 1004.9 |
| 20260505225931 | 59 | 218 | 3.0 | 4.0 | 0.12 | 0.29 | 0.29 | 94 | 1004.9 |
| 20260505225428 | 60 | 208 | 2.0 | 4.0 | 0.07 | 0.28 | 0.28 | 94 | 1005.1 |
| 20260505224924 | 60 | 260 | 4.0 | 6.0 | 0.19 | 0.28 | 0.28 | 94 | 1004.9 |